Tracking 18785 objects as of 27-July-2017
HD Live streaming from Space Station
objects crossing your sky now
MAYAK may become the brightest orbital object in the night sky!
Where is MAYAK now?
How to spot MAYAK

INTELSAT 2-F4

Track INTELSAT 2-F4 now!
INTELSAT 2-F4 is classified as:


NORAD ID: 2969
Int'l Code: 1967-094A
Perigee: 35,755.0 km
Apogee: 35,887.6 km
Inclination: 3.7 °
Period: 1,437.5 minutes
Semi major axis: 42192 km
RCS: 2.5118 m2 (large)
Launch date: September 28, 1967
Source: International Telecommunications Satellite Organization (ITSO)
Launch site: AIR FORCE EASTERN TEST RANGE (AFETR)
Your satellite tracking list
Your tracking list is empty





NASA's NSSDC Master Catalog

Two Line Element Set (TLE):
1  2969U 67094A   17207.53526333 +.00000044 +00000-0 +00000-0 0  9997
2  2969 003.7401 297.4062 0015714 233.2581 197.9180 01.00173515082755
Source of the keplerian elements: AFSPC